EW9119 Weather Reports


time (UTC)temp
F
wind
direction
speed
knots
gust
knots
rain 1hr
in
rain 24hr
in
rain mn
in
humidity
%
barometer
mb
20260505153032 76 360 0.0 0.0 0.00 0.00 0.00 52 1014.0
20260505151527 75 90 0.0 0.0 0.00 0.00 0.00 50 1014.0
20260505130112 64 308 0.0 0.0 0.00 0.00 0.00 63 1014.3
20260505124600 62 73 0.0 0.0 0.00 0.00 0.00 62 1014.1
20260505123051 60 298 0.0 0.0 0.00 0.00 0.00 52 1013.9
20260505121552 57 336 0.0 0.0 0.00 0.00 0.00 34 1013.9
20260505120106 55 331 0.0 0.0 0.00 0.00 0.00 26 1013.9
20260505114548 54 280 0.0 0.0 0.00 0.00 0.00 29 1013.7
20260505113051 54 332 0.0 0.0 0.00 0.00 0.00 35 1013.6
20260505111542 53 335 0.0 0.0 0.00 0.00 0.00 41 1013.4
20260505101534 54 324 0.0 0.0 0.00 0.00 0.00 54 1013.3
20260505100034 54 20 0.0 0.0 0.00 0.00 0.00 55 1013.1
20260505094534 54 78 0.0 0.0 0.00 0.00 0.00 58 1013.1
20260505093029 55 78 0.0 0.0 0.00 0.00 0.00 59 1013.1
20260505091528 55 78 0.0 0.0 0.00 0.00 0.00 60 1013.1
20260505090025 55 76 0.0 0.0 0.00 0.00 0.00 62 1013.0
20260505084526 56 76 0.0 0.0 0.00 0.00 0.00 62 1012.8
20260505083022 56 76 0.0 0.0 0.00 0.00 0.00 63 1012.8
20260505081529 56 73 0.0 0.0 0.00 0.00 0.00 64 1012.4
20260505080020 56 73 0.0 0.0 0.00 0.00 0.00 64 1012.5
20260505074516 57 78 0.0 0.0 0.00 0.00 0.00 64 1012.4
20260505073014 57 122 0.0 0.0 0.00 0.00 0.00 63 1012.3
20260505071524 58 119 0.0 0.0 0.00 0.00 0.00 62 1012.2
20260505070011 58 119 0.0 0.0 0.00 0.00 0.00 61 1012.1
20260505064519 59 119 0.0 0.0 0.00 0.00 0.00 60 1012.1
20260505063012 59 119 0.0 0.0 0.00 0.00 0.00 58 1012.1
20260505061509 60 119 0.0 0.0 0.00 0.00 0.00 57 1012.3
20260505060002 60 121 0.0 0.0 0.00 0.00 0.00 55 1012.2
20260505054502 60 26 0.0 0.0 0.00 0.00 0.00 54 1012.1
20260505053001 61 132 0.0 0.0 0.00 0.00 0.00 54 1012.2
20260505051600 61 113 0.0 0.0 0.00 0.00 0.00 55 1012.2
20260505041556 60 298 0.0 0.0 0.00 0.00 0.00 55 1012.1
20260505040054 61 298 0.0 0.0 0.00 0.00 0.00 55 1012.1
20260505034553 61 298 0.0 0.0 0.00 0.00 0.00 56 1012.2
20260505033052 61 298 0.0 0.0 0.00 0.00 0.00 56 1012.3
20260505031550 61 298 0.0 0.0 0.00 0.00 0.00 55 1012.4
20260505030047 61 298 0.0 0.0 0.00 0.00 0.00 54 1012.4
20260505024540 61 298 0.0 0.0 0.00 0.00 0.00 57 1012.4
20260505023035 62 298 0.0 0.0 0.00 0.00 0.00 56 1012.4
20260505021532 62 298 0.0 0.0 0.00 0.00 0.00 56 1012.3
20260505020028 63 298 0.0 0.0 0.00 0.00 0.00 56 1012.3
20260505014524 63 298 0.0 0.0 0.00 0.00 0.00 53 1012.3
20260505013022 64 298 0.0 0.0 0.00 0.00 0.00 54 1012.0
20260505011521 65 298 0.0 0.0 0.00 0.00 0.00 53 1011.8
20260505010016 66 298 0.0 0.0 0.00 0.00 0.00 53 1011.7
20260505004512 67 298 0.0 0.0 0.00 0.00 0.00 51 1011.6
20260505003006 68 298 0.0 0.0 0.00 0.00 0.00 49 1011.6
20260505001502 69 298 0.0 0.0 0.00 0.00 0.00 46 1011.4
20260505000112 70 240 0.0 0.0 0.00 0.00 0.00 45 1011.3
20260504234559 71 175 0.0 0.0 0.00 0.00 0.00 45 1011.2
20260504233056 72 78 0.0 0.0 0.00 0.00 0.00 43 1011.0
20260504231555 72 67 0.0 0.0 0.00 0.00 0.00 44 1011.0
20260504230056 73 9 0.0 0.0 0.00 0.00 0.00 41 1011.0
20260504224552 73 117 0.0 0.0 0.00 0.00 0.00 40 1011.0
20260504223047 74 81 0.0 0.9 0.00 0.00 0.00 42 1011.1
20260504221544 74 186 0.0 0.9 0.00 0.00 0.00 41 1011.1
20260504220046 75 36 0.0 0.0 0.00 0.00 0.00 40 1011.1
20260504214544 75 346 0.0 0.0 0.00 0.00 0.00 39 1011.2
20260504213030 75 355 0.0 0.0 0.00 0.00 0.00 39 1011.2
20260504211526 76 308 0.0 0.0 0.00 0.00 0.00 39 1011.1
20260504210024 76 40 0.0 0.0 0.00 0.00 0.00 42 1011.2
20260504204517 76 329 0.0 0.0 0.00 0.00 0.00 40 1011.2
20260504203014 75 311 0.0 1.7 0.00 0.00 0.00 40 1011.4
20260504201508 75 74 0.0 0.0 0.00 0.00 0.00 40 1011.5
20260504200004 75 316 0.0 0.0 0.00 0.00 0.00 41 1011.7
20260504194559 75 327 0.0 0.9 0.00 0.00 0.00 42 1012.0
20260504193055 75 323 0.0 0.0 0.00 0.00 0.00 40 1012.1
20260504191556 75 13 0.0 0.0 0.00 0.00 0.00 43 1012.4
20260504190054 75 305 0.0 0.0 0.00 0.00 0.00 42 1012.7
20260504184553 74 320 0.0 0.0 0.00 0.00 0.00 41 1012.8
20260504183044 75 297 0.0 0.9 0.00 0.00 0.00 39 1013.1
20260504181537 75 287 0.0 1.7 0.00 0.00 0.00 38 1013.2
20260504180029 76 213 0.0 0.0 0.00 0.00 0.00 42 1013.2
20260504174524 76 166 0.0 0.9 0.00 0.00 0.00 41 1013.3
20260504173018 75 325 0.0 0.0 0.00 0.00 0.00 41 1013.4
20260504171514 73 15 0.0 0.0 0.00 0.00 0.00 42 1013.7